FW6591 Weather Reports


Display with metric or nautical units.
time (UTC)temp
F
wind
direction
speed
MPH
gust
MPH
rain 1hr
in
rain 24hr
in
rain mn
in
humidity
%
barometer
mb
20260831224550 48 323 3.0 5.0 0.00 0.00 0.00 79 1028.1
20260831223059 50 187 0.0 3.0 0.00 0.00 0.00 77 1028.1
20260831221602 51 229 2.0 5.0 0.00 0.00 0.00 77 1028.3
20260831220119 49 309 0.0 2.0 0.00 0.00 0.00 79 1028.2
20260831214548 49 28 2.0 4.0 0.00 0.00 0.00 77 1028.3
20260831213105 51 9 2.0 5.0 0.00 0.00 0.00 76 1028.4
20260831211554 54 348 4.0 8.0 0.00 0.00 0.00 69 1028.4
20260831210100 55 306 1.0 9.0 0.00 0.00 0.00 67 1028.7
20260831204555 56 9 2.0 10.0 0.00 0.00 0.00 66 1028.8
20260831203123 56 306 4.0 9.0 0.00 0.00 0.00 66 1028.8
20260831201547 52 325 1.0 10.0 0.00 0.00 0.00 74 1028.8
20260831200056 52 0 0.0 9.0 0.00 0.00 0.00 73 1028.7
20260831194549 53 335 3.0 6.0 0.00 0.00 0.00 72 1028.9
20260831193048 52 350 3.0 5.0 0.00 0.00 0.00 72 1028.8
20260831191553 53 342 5.0 8.0 0.00 0.00 0.00 70 1028.8
20260831190132 54 13 0.0 0.0 0.00 0.00 0.00 70 1028.9
20260831184551 56 0 0.0 2.0 0.00 0.00 0.00 68 1028.9
20260831183058 56 191 0.0 2.0 0.00 0.00 0.00 67 1028.8
20260831181554 57 0 0.0 2.0 0.00 0.00 0.00 64 1028.5
20260831180054 57 190 0.0 2.0 0.00 0.00 0.00 63 1028.5
20260831174551 58 172 1.0 3.0 0.00 0.00 0.00 62 1028.4
20260831173046 57 168 0.0 2.0 0.00 0.00 0.00 63 1028.1
20260831171603 58 0 0.0 2.0 0.00 0.00 0.00 62 1027.8
20260831170052 59 0 0.0 2.0 0.00 0.00 0.00 60 1027.7
20260831164549 60 96 0.0 3.0 0.00 0.00 0.00 58 1027.6
20260831163054 60 79 1.0 2.0 0.00 0.00 0.00 59 1027.3
20260831161603 62 0 0.0 0.0 0.00 0.00 0.00 57 1027.2
20260831160117 63 169 0.0 2.0 0.00 0.00 0.00 52 1027.1
20260831154618 65 0 0.0 2.0 0.00 0.00 0.00 52 1027.0
20260831153129 66 0 0.0 2.0 0.00 0.00 0.00 47 1027.0
20260831151558 68 202 1.0 3.0 0.00 0.00 0.00 47 1027.0
20260831150053 69 199 0.0 4.0 0.00 0.00 0.00 47 1026.9
20260831144549 68 206 1.0 5.0 0.00 0.00 0.00 49 1026.8
20260831143056 69 202 2.0 6.0 0.00 0.00 0.00 48 1026.8
20260831141557 69 177 2.0 6.0 0.00 0.00 0.00 49 1026.7
20260831140052 69 215 2.0 6.0 0.00 0.00 0.00 48 1026.6
20260831134548 69 190 2.0 7.0 0.00 0.00 0.00 49 1026.5
20260831133047 69 227 3.0 6.0 0.00 0.00 0.00 48 1026.4
20260831131550 69 229 1.0 8.0 0.00 0.00 0.00 47 1026.5
20260831130059 69 206 3.0 6.0 0.00 0.00 0.00 48 1026.3
20260831124553 69 130 2.0 5.0 0.00 0.00 0.00 48 1026.5
20260831123051 67 59 1.0 6.0 0.00 0.00 0.00 49 1026.6
20260831121558 67 225 1.0 7.0 0.00 0.00 0.00 51 1026.6
20260831120139 66 179 3.0 9.0 0.00 0.00 0.00 54 1026.5
20260831114548 65 207 3.0 14.0 0.00 0.00 0.00 55 1026.6
20260831113059 65 215 3.0 8.0 0.00 0.00 0.00 58 1026.9
20260831111556 65 229 3.0 5.0 0.00 0.00 0.00 55 1027.0
20260831110049 64 229 4.0 7.0 0.00 0.00 0.00 55 1027.1
20260831104549 64 53 1.0 5.0 0.00 0.00 0.00 64 1027.6
20260831103049 63 227 2.0 5.0 0.00 0.00 0.00 58 1027.8
20260831101606 62 186 2.0 4.0 0.00 0.00 0.00 63 1028.3
20260831100051 62 232 2.0 5.0 0.00 0.00 0.00 62 1028.4
20260831094601 62 41 2.0 4.0 0.00 0.00 0.00 62 1028.8
20260831093058 59 88 1.0 4.0 0.00 0.00 0.00 65 1029.4
20260831091553 59 217 1.0 4.0 0.00 0.00 0.00 67 1029.7
20260831090047 58 0 0.0 2.0 0.00 0.00 0.00 67 1030.0
20260831084554 57 139 0.0 4.0 0.00 0.00 0.00 71 1030.2
20260831083058 56 193 2.0 4.0 0.00 0.00 0.00 72 1030.4
20260831081557 56 211 1.0 3.0 0.00 0.00 0.00 72 1030.6
20260831080049 56 182 2.0 7.0 0.00 0.00 0.00 74 1030.8
20260831074559 54 200 2.0 9.0 0.00 0.00 0.00 76 1030.9
20260831073051 54 189 3.0 7.0 0.00 0.00 0.00 77 1030.8
20260831071552 54 157 3.0 4.0 0.00 0.00 0.00 76 1030.5
20260831070125 52 244 1.0 6.0 0.00 0.00 0.00 78 1030.3
20260831064604 51 235 2.0 6.0 0.00 0.00 0.00 79 1030.4
20260831063102 50 248 2.0 6.0 0.00 0.00 0.00 80 1030.4
20260831061606 50 213 2.0 7.0 0.00 0.00 0.00 81 1030.3
20260831060109 50 0 1.0 4.0 0.00 0.00 0.00 81 1030.1
20260831054554 49 265 2.0 4.0 0.00 0.00 0.00 82 1030.1
20260831053106 49 13 3.0 4.0 0.00 0.00 0.00 83 1029.8
20260831051603 48 18 2.0 3.0 0.00 0.00 0.00 84 1029.5
20260831050100 48 9 0.0 2.0 0.00 0.00 0.00 84 1029.8
20260831044554 48 0 0.0 2.0 0.00 0.00 0.00 84 1029.8
20260831043048 48 58 0.0 2.0 0.00 0.00 0.00 84 1029.6
20260831041544 48 225 0.0 2.0 0.00 0.00 0.00 85 1029.5
20260831040058 48 199 1.0 4.0 0.00 0.00 0.00 84 1029.4
20260831034558 48 211 2.0 5.0 0.00 0.00 0.00 83 1029.3
20260831033050 48 186 2.0 6.0 0.00 0.00 0.00 82 1028.9
20260831031558 48 197 2.0 4.0 0.00 0.00 0.00 82 1028.7
20260831030051 48 181 2.0 5.0 0.00 0.00 0.00 81 1028.2
20260831024559 49 202 2.0 5.0 0.00 0.00 0.00 79 1028.3
20260831023050 49 198 1.0 4.0 0.00 0.00 0.00 80 1028.3
20260831021557 49 198 1.0 4.0 0.00 0.00 0.00 79 1028.2
20260831020050 49 185 1.0 3.0 0.00 0.00 0.00 78 1028.1
20260831014557 50 0 1.0 3.0 0.00 0.00 0.00 78 1028.2
20260831013056 50 192 2.0 3.0 0.00 0.00 0.00 79 1028.2
20260831011551 50 190 1.0 2.0 0.00 0.00 0.00 78 1028.6
20260831010130 50 205 0.0 2.0 0.00 0.00 0.00 78 1028.6
20260831004558 50 173 1.0 4.0 0.00 0.00 0.00 78 1028.8
20260831003055 51 193 1.0 4.0 0.00 0.00 0.00 79 1029.0
20260831001607 51 202 3.0 4.0 0.00 0.00 0.00 78 1029.1
20260831000054 51 186 1.0 4.0 0.00 0.00 0.00 78 1029.3
20260830234600 51 181 1.0 4.0 0.00 0.00 0.00 78 1029.3
20260830233045 51 210 0.0 2.0 0.00 0.00 0.00 79 1029.3
20260830231555 51 210 0.0 2.0 0.00 0.00 0.00 78 1029.2